Погода в Сельце

Россия / Брянская область     52°30′58″N   33°35′03″E
темп.,
°C
ветер,
м/с
пор.,
м/с
влажн.,
%
обл.,
%
осадки,
мм/ч
давл.,
гПа
погр.,
м
7 мая, пт
пт700:00+6з3480100 0.0 101252
03:00+4з338011 0.0 101329
06:00+4ююз22795 0.0 101436
09:00+10ююз576313 0.0 1014538
12:00+14ююз684710 0.0 10131798
15:00+15ююз7949100 0.0 10122255
18:00+13ююв71161100 0.0 1010914
21:00+12ю91562100 0.0 10091118
8 мая, сб
сб800:00+10ююв71593100 1.8 1007782
03:00+10ю51196100 4.4 1005666
06:00+10юз1399100 4.1 1003134
09:00+9з4892100 6.4 1004432
12:00+11зюз81075100 0.5 10061351
15:00+8зюз81081100 0.6 10081144
18:00+7зсз7137852 0.1 10111151
21:00+5зсз511795 0.2 1014399
9 мая, вс
вс900:00+3з412865 0.0 1016295
03:00+2з411895 0.0 1018265
06:00+2зсз410935 0.0 1020302
09:00+7сз58695 0.0 1021884
12:00+11сз685124 0.0 10231881
15:00+12сз57455 0.0 10242118
18:00+12сз45559 0.0 10251662
21:00+6ссз22665 0.0 102710
10 мая, пн
пн1000:00+5ссз116576 0.0 102810
03:00+4ююв11675 0.0 103010
06:00+4ююз11713 0.0 103110
09:00+11ю11565 0.0 1032355
12:00+15ю11455 0.0 10311412
15:00+16зюз114117 0.0 10301744
18:00+15сз11480 0.0 10301110
21:00+10всв22620 0.0 103012
11 мая, вт
вт1100:00+7юв33720 0.0 103035
03:00+6в22750 0.0 103110
06:00+6в22795 0.0 103140
09:00+12всв35625 0.0 1031492
12:00+17в57452 0.0 10291249
15:00+18в56430 0.0 10271329
18:00+17всв47590 0.0 1026575
21:00+11всв4879100 0.0 1026136